| time (UTC) | temp C | wind direction | speed KPH | gust KPH | rain 1hr cm | rain 24hr cm | rain mn cm | humidity % | barometer mb |
| 20260508185008 | 18 | 153 | 6.4 | 17.7 | 0.00 | 0.00 | 0.00 | 49 | 1010.9 |
| 20260508184533 | 18 | 119 | 6.4 | 17.7 | 0.00 | 0.00 | 0.00 | 49 | 1011.0 |
| 20260508184012 | 18 | 112 | 8.0 | 16.1 | 0.00 | 0.00 | 0.00 | 49 | 1011.0 |
| 20260508183510 | 18 | 268 | 4.8 | 19.3 | 0.00 | 0.00 | 0.00 | 49 | 1010.8 |
| 20260508183036 | 18 | 217 | 8.0 | 19.3 | 0.00 | 0.00 | 0.00 | 52 | 1010.9 |
| 20260508182509 | 18 | 197 | 9.7 | 17.7 | 0.00 | 0.00 | 0.00 | 48 | 1010.9 |
| 20260508182009 | 18 | 255 | 8.0 | 30.6 | 0.00 | 0.00 | 0.00 | 52 | 1010.9 |
| 20260508181527 | 18 | 199 | 6.4 | 30.6 | 0.00 | 0.00 | 0.00 | 51 | 1011.0 |
| 20260508181011 | 18 | 205 | 9.7 | 22.5 | 0.00 | 0.00 | 0.00 | 52 | 1011.2 |
| 20260508180509 | 18 | 77 | 6.4 | 17.7 | 0.00 | 0.00 | 0.00 | 54 | 1011.4 |
| 20260508180026 | 18 | 264 | 8.0 | 16.1 | 0.00 | 0.00 | 0.00 | 53 | 1011.4 |
| 20260508175511 | 17 | 157 | 6.4 | 14.5 | 0.00 | 0.00 | 0.00 | 52 | 1011.5 |
| 20260508175011 | 17 | 198 | 4.8 | 14.5 | 0.00 | 0.00 | 0.00 | 53 | 1011.6 |
| 20260508174534 | 17 | 191 | 4.8 | 22.5 | 0.00 | 0.00 | 0.00 | 53 | 1011.8 |
| 20260508174011 | 17 | 336 | 3.2 | 22.5 | 0.00 | 0.00 | 0.00 | 53 | 1011.9 |
| 20260508173509 | 17 | 248 | 8.0 | 19.3 | 0.00 | 0.00 | 0.00 | 51 | 1012.0 |
| 20260508173025 | 17 | 184 | 6.4 | 17.7 | 0.00 | 0.00 | 0.00 | 55 | 1012.1 |
| 20260508172509 | 17 | 190 | 9.7 | 17.7 | 0.00 | 0.00 | 0.00 | 54 | 1012.2 |
| 20260508172011 | 16 | 238 | 4.8 | 16.1 | 0.00 | 0.00 | 0.00 | 56 | 1012.4 |
| 20260508171525 | 16 | 258 | 6.4 | 16.1 | 0.00 | 0.00 | 0.00 | 55 | 1012.6 |
| 20260508171011 | 16 | 201 | 4.8 | 11.3 | 0.00 | 0.00 | 0.00 | 57 | 1012.7 |
| 20260508170509 | 16 | 188 | 3.2 | 12.9 | 0.00 | 0.00 | 0.00 | 58 | 1012.7 |
| 20260508170034 | 16 | 251 | 4.8 | 16.1 | 0.00 | 0.00 | 0.00 | 56 | 1012.8 |
| 20260508165509 | 16 | 268 | 6.4 | 16.1 | 0.00 | 0.00 | 0.00 | 57 | 1013.0 |
| 20260508165015 | 15 | 252 | 3.2 | 14.5 | 0.00 | 0.00 | 0.00 | 56 | 1013.1 |
| 20260508164536 | 15 | 265 | 3.2 | 14.5 | 0.00 | 0.00 | 0.00 | 56 | 1013.1 |
| 20260508164003 | 15 | 270 | 4.8 | 12.9 | 0.00 | 0.00 | 0.00 | 56 | 1013.1 |
| 20260508163504 | 15 | 149 | 1.6 | 17.7 | 0.00 | 0.00 | 0.00 | 56 | 1013.1 |
| 20260508163014 | 16 | 313 | 8.0 | 17.7 | 0.00 | 0.00 | 0.00 | 56 | 1013.1 |
| 20260508162502 | 16 | 265 | 4.8 | 19.3 | 0.00 | 0.00 | 0.00 | 56 | 1013.1 |
| 20260508162003 | 16 | 322 | 6.4 | 19.3 | 0.00 | 0.00 | 0.00 | 55 | 1013.1 |
| 20260508161519 | 15 | 273 | 4.8 | 19.3 | 0.00 | 0.00 | 0.00 | 56 | 1013.1 |
| 20260508161007 | 16 | 292 | 9.7 | 19.3 | 0.00 | 0.00 | 0.00 | 55 | 1013.2 |
| 20260508160510 | 15 | 252 | 8.0 | 16.1 | 0.00 | 0.00 | 0.00 | 57 | 1013.2 |
| 20260508160021 | 15 | 302 | 6.4 | 20.9 | 0.00 | 0.00 | 0.00 | 55 | 1013.2 |
| 20260508155503 | 15 | 154 | 8.0 | 22.5 | 0.00 | 0.00 | 0.00 | 56 | 1013.3 |
| 20260508155003 | 15 | 265 | 9.7 | 25.7 | 0.00 | 0.00 | 0.00 | 56 | 1013.3 |
| 20260508154506 | 15 | 213 | 11.3 | 25.7 | 0.00 | 0.00 | 0.00 | 54 | 1013.3 |
| 20260508154002 | 15 | 255 | 9.7 | 20.9 | 0.00 | 0.00 | 0.00 | 55 | 1013.4 |
| 20260508153503 | 15 | 286 | 8.0 | 20.9 | 0.00 | 0.00 | 0.00 | 55 | 1013.4 |
| 20260508152507 | 13 | 229 | 3.2 | 17.7 | 0.00 | 0.00 | 0.00 | 61 | 1013.4 |
| 20260508152010 | 13 | 305 | 4.8 | 9.7 | 0.00 | 0.00 | 0.00 | 63 | 1013.4 |
| 20260508151522 | 13 | 221 | 3.2 | 11.3 | 0.00 | 0.00 | 0.00 | 63 | 1013.4 |
| 20260508151007 | 12 | 231 | 3.2 | 12.9 | 0.00 | 0.00 | 0.00 | 64 | 1013.6 |
| 20260508150509 | 12 | 286 | 4.8 | 12.9 | 0.00 | 0.00 | 0.00 | 62 | 1013.5 |
| 20260508150020 | 12 | 171 | 4.8 | 9.7 | 0.00 | 0.00 | 0.00 | 62 | 1013.5 |
| 20260508145508 | 12 | 314 | 3.2 | 14.5 | 0.00 | 0.00 | 0.00 | 63 | 1013.6 |
| 20260508145010 | 12 | 221 | 1.6 | 14.5 | 0.00 | 0.00 | 0.00 | 64 | 1013.8 |
| 20260508144528 | 12 | 205 | 6.4 | 17.7 | 0.00 | 0.00 | 0.00 | 64 | 1013.8 |
| 20260508144003 | 11 | 170 | 4.8 | 17.7 | 0.00 | 0.00 | 0.00 | 65 | 1013.7 |
| 20260508143504 | 11 | 153 | 6.4 | 16.1 | 0.00 | 0.00 | 0.00 | 66 | 1013.6 |
| 20260508143009 | 11 | 200 | 1.6 | 14.5 | 0.00 | 0.00 | 0.00 | 67 | 1013.7 |
| 20260508142504 | 11 | 219 | 3.2 | 9.7 | 0.00 | 0.00 | 0.00 | 67 | 1013.7 |
| 20260508142007 | 11 | 178 | 3.2 | 8.0 | 0.00 | 0.00 | 0.00 | 68 | 1013.8 |
| 20260508141513 | 10 | 188 | 1.6 | 9.7 | 0.00 | 0.00 | 0.00 | 68 | 1013.9 |
| 20260508141007 | 10 | 190 | 3.2 | 9.7 | 0.00 | 0.00 | 0.00 | 68 | 1013.9 |
| 20260508140503 | 10 | 213 | 3.2 | 9.7 | 0.00 | 0.00 | 0.00 | 69 | 1013.9 |
| 20260508140022 | 10 | 189 | 3.2 | 9.7 | 0.00 | 0.00 | 0.00 | 69 | 1013.9 |
| 20260508135507 | 10 | 165 | 1.6 | 8.0 | 0.00 | 0.00 | 0.00 | 69 | 1013.8 |
| 20260508135010 | 10 | 190 | 1.6 | 11.3 | 0.00 | 0.00 | 0.00 | 69 | 1013.8 |
| 20260508134530 | 10 | 194 | 3.2 | 11.3 | 0.00 | 0.00 | 0.00 | 68 | 1013.8 |
| 20260508134010 | 10 | 306 | 1.6 | 12.9 | 0.00 | 0.00 | 0.00 | 67 | 1013.8 |
| 20260508133507 | 10 | 186 | 3.2 | 12.9 | 0.00 | 0.00 | 0.00 | 68 | 1013.9 |
| 20260508133007 | 10 | 296 | 1.6 | 11.3 | 0.00 | 0.00 | 0.00 | 68 | 1013.9 |
| 20260508132505 | 10 | 233 | 1.6 | 16.1 | 0.00 | 0.00 | 0.00 | 67 | 1013.8 |
| 20260508132004 | 10 | 142 | 4.8 | 16.1 | 0.00 | 0.00 | 0.00 | 66 | 1013.8 |
| 20260508131510 | 10 | 10 | 3.2 | 9.7 | 0.00 | 0.00 | 0.00 | 68 | 1013.7 |
| 20260508131004 | 10 | 288 | 3.2 | 16.1 | 0.00 | 0.00 | 0.00 | 68 | 1013.9 |
| 20260508130505 | 10 | 204 | 4.8 | 16.1 | 0.00 | 0.00 | 0.00 | 67 | 1013.8 |
| 20260508130027 | 10 | 197 | 3.2 | 8.0 | 0.00 | 0.00 | 0.00 | 67 | 1013.8 |
| 20260508125508 | 10 | 251 | 3.2 | 11.3 | 0.00 | 0.00 | 0.00 | 68 | 1013.8 |
| 20260508125009 | 10 | 219 | 1.6 | 11.3 | 0.00 | 0.00 | 0.00 | 69 | 1013.7 |
| 20260508124519 | 10 | 216 | 1.6 | 11.3 | 0.00 | 0.00 | 0.00 | 69 | 1013.6 |
| 20260508124010 | 10 | 214 | 4.8 | 16.1 | 0.00 | 0.00 | 0.00 | 69 | 1013.5 |
| 20260508123509 | 10 | 198 | 6.4 | 16.1 | 0.00 | 0.00 | 0.00 | 70 | 1013.6 |
| 20260508123022 | 9 | 291 | 3.2 | 14.5 | 0.00 | 0.00 | 0.00 | 71 | 1013.7 |
| 20260508122513 | 9 | 233 | 3.2 | 12.9 | 0.00 | 0.00 | 0.00 | 71 | 1013.6 |
| 20260508122015 | 9 | 212 | 0.0 | 12.9 | 0.00 | 0.00 | 0.00 | 71 | 1013.4 |
| 20260508121507 | 9 | 228 | 1.6 | 9.7 | 0.00 | 0.00 | 0.00 | 71 | 1013.3 |
| 20260508121004 | 8 | 284 | 3.2 | 9.7 | 0.00 | 0.00 | 0.00 | 72 | 1013.3 |
| 20260508120503 | 8 | 152 | 1.6 | 6.4 | 0.00 | 0.00 | 0.00 | 72 | 1013.4 |
| 20260508120014 | 8 | 165 | 3.2 | 4.8 | 0.00 | 0.00 | 0.00 | 73 | 1013.4 |
| 20260508115505 | 8 | 196 | 0.0 | 6.4 | 0.00 | 0.00 | 0.00 | 75 | 1013.6 |
| 20260508115006 | 8 | 196 | 1.6 | 6.4 | 0.00 | 0.00 | 0.00 | 74 | 1013.5 |
| 20260508114522 | 8 | 199 | 1.6 | 6.4 | 0.00 | 0.00 | 0.00 | 74 | 1013.5 |
| 20260508114008 | 7 | 187 | 1.6 | 6.4 | 0.00 | 0.00 | 0.00 | 74 | 1013.4 |
| 20260508113510 | 7 | 200 | 1.6 | 3.2 | 0.00 | 0.00 | 0.00 | 74 | 1013.4 |
| 20260508113022 | 7 | 215 | 0.0 | 3.2 | 0.00 | 0.00 | 0.00 | 75 | 1013.2 |
| 20260508112508 | 7 | 181 | 0.0 | 3.2 | 0.00 | 0.00 | 0.00 | 75 | 1013.1 |
| 20260508112009 | 7 | 199 | 1.6 | 3.2 | 0.00 | 0.00 | 0.00 | 75 | 1013.1 |
| 20260508111525 | 7 | 203 | 0.0 | 4.8 | 0.00 | 0.00 | 0.00 | 76 | 1013.1 |
| 20260508111011 | 7 | 177 | 0.0 | 4.8 | 0.00 | 0.00 | 0.00 | 75 | 1013.1 |
| 20260508110509 | 6 | 194 | 1.6 | 4.8 | 0.00 | 0.00 | 0.00 | 75 | 1013.1 |
| 20260508110010 | 6 | 209 | 0.0 | 3.2 | 0.00 | 0.00 | 0.00 | 76 | 1013.1 |
| 20260508105505 | 6 | 189 | 0.0 | 3.2 | 0.00 | 0.00 | 0.00 | 76 | 1013.1 |
| 20260508105005 | 6 | 193 | 0.0 | 3.2 | 0.00 | 0.00 | 0.00 | 76 | 1013.1 |
| 20260508104514 | 6 | 193 | 0.0 | 3.2 | 0.00 | 0.00 | 0.00 | 76 | 1013.1 |
| 20260508104001 | 6 | 169 | 1.6 | 3.2 | 0.00 | 0.00 | 0.00 | 76 | 1013.2 |
| 20260508103501 | 6 | 207 | 0.0 | 3.2 | 0.00 | 0.00 | 0.00 | 76 | 1013.3 |
| 20260508103001 | 6 | 207 | 1.6 | 3.2 | 0.00 | 0.00 | 0.00 | 76 | 1013.2 |
| 20260508102501 | 6 | 209 | 0.0 | 3.2 | 0.00 | 0.00 | 0.00 | 76 | 1013.0 |
| 20260508102001 | 6 | 247 | 0.0 | 3.2 | 0.00 | 0.00 | 0.00 | 76 | 1013.1 |
| 20260508101516 | 6 | 171 | 0.0 | 3.2 | 0.00 | 0.00 | 0.00 | 77 | 1013.0 |
| 20260508101001 | 5 | 165 | 1.6 | 3.2 | 0.00 | 0.00 | 0.00 | 77 | 1013.0 |
| 20260508100501 | 5 | 132 | 0.0 | 3.2 | 0.00 | 0.00 | 0.00 | 78 | 1013.0 |
| 20260508100015 | 5 | 132 | 0.0 | 3.2 | 0.00 | 0.00 | 0.00 | 79 | 1013.0 |
| 20260508095509 | 5 | 132 | 0.0 | 3.2 | 0.00 | 0.00 | 0.00 | 80 | 1012.9 |
| 20260508095005 | 5 | 132 | 0.0 | 3.2 | 0.00 | 0.00 | 0.00 | 80 | 1012.9 |
| 20260508094517 | 5 | 132 | 0.0 | 3.2 | 0.00 | 0.00 | 0.00 | 81 | 1013.0 |
| 20260508094008 | 5 | 132 | 0.0 | 3.2 | 0.00 | 0.00 | 0.00 | 80 | 1013.0 |
| 20260508093505 | 5 | 132 | 0.0 | 3.2 | 0.00 | 0.00 | 0.00 | 80 | 1012.9 |
| 20260508093005 | 5 | 132 | 0.0 | 3.2 | 0.00 | 0.00 | 0.00 | 81 | 1012.9 |
| 20260508092501 | 5 | 132 | 0.0 | 3.2 | 0.00 | 0.00 | 0.00 | 80 | 1012.9 |
| 20260508092002 | 5 | 132 | 0.0 | 3.2 | 0.00 | 0.00 | 0.00 | 80 | 1013.0 |
| 20260508091513 | 5 | 132 | 0.0 | 3.2 | 0.00 | 0.00 | 0.00 | 79 | 1012.9 |
| 20260508091004 | 5 | 132 | 0.0 | 3.2 | 0.00 | 0.00 | 0.00 | 79 | 1013.0 |
| 20260508090502 | 5 | 132 | 0.0 | 3.2 | 0.00 | 0.00 | 0.00 | 80 | 1013.0 |
| 20260508090010 | 5 | 132 | 0.0 | 3.2 | 0.00 | 0.00 | 0.00 | 81 | 1013.0 |
| 20260508085005 | 5 | 132 | 0.0 | 0.0 | 0.00 | 0.00 | 0.00 | 82 | 1013.1 |
| 20260508084509 | 5 | 132 | 0.0 | 0.0 | 0.00 | 0.00 | 0.00 | 81 | 1013.1 |
| 20260508084006 | 6 | 132 | 0.0 | 1.6 | 0.00 | 0.00 | 0.00 | 80 | 1013.1 |
| 20260508083015 | 6 | 132 | 0.0 | 3.2 | 0.00 | 0.00 | 0.00 | 79 | 1013.0 |
| 20260508082510 | 6 | 132 | 0.0 | 3.2 | 0.00 | 0.00 | 0.00 | 80 | 1013.0 |
| 20260508082002 | 6 | 132 | 0.0 | 3.2 | 0.00 | 0.00 | 0.00 | 79 | 1013.0 |
| 20260508081509 | 6 | 132 | 0.0 | 3.2 | 0.00 | 0.00 | 0.00 | 78 | 1012.9 |
| 20260508081004 | 6 | 132 | 0.0 | 3.2 | 0.00 | 0.00 | 0.00 | 78 | 1013.0 |
| 20260508080504 | 6 | 132 | 0.0 | 3.2 | 0.00 | 0.00 | 0.00 | 79 | 1013.0 |
| 20260508080007 | 6 | 132 | 0.0 | 3.2 | 0.00 | 0.00 | 0.00 | 80 | 1013.0 |
| 20260508075504 | 6 | 132 | 0.0 | 3.2 | 0.00 | 0.00 | 0.00 | 81 | 1013.0 |
| 20260508075004 | 6 | 132 | 0.0 | 3.2 | 0.00 | 0.00 | 0.00 | 82 | 1013.1 |
| 20260508074514 | 6 | 132 | 0.0 | 3.2 | 0.00 | 0.00 | 0.00 | 82 | 1013.1 |
| 20260508074003 | 6 | 132 | 0.0 | 3.2 | 0.00 | 0.00 | 0.00 | 82 | 1013.0 |
| 20260508073505 | 6 | 132 | 0.0 | 3.2 | 0.00 | 0.00 | 0.00 | 82 | 1013.0 |
| 20260508073014 | 6 | 132 | 0.0 | 3.2 | 0.00 | 0.00 | 0.00 | 84 | 1013.0 |
| 20260508072505 | 6 | 132 | 0.0 | 1.6 | 0.00 | 0.00 | 0.00 | 87 | 1013.0 |
| 20260508072008 | 6 | 132 | 0.0 | 1.6 | 0.00 | 0.00 | 0.00 | 87 | 1013.1 |
| 20260508071519 | 6 | 132 | 0.0 | 3.2 | 0.00 | 0.00 | 0.00 | 87 | 1013.1 |
| 20260508070503 | 6 | 132 | 0.0 | 0.0 | 0.00 | 0.00 | 0.00 | 85 | 1013.2 |
| 20260508070005 | 6 | 132 | 0.0 | 3.2 | 0.00 | 0.00 | 0.00 | 85 | 1013.3 |
| 20260508065502 | 6 | 132 | 0.0 | 3.2 | 0.00 | 0.00 | 0.00 | 83 | 1013.3 |
| 20260508065004 | 6 | 132 | 0.0 | 3.2 | 0.00 | 0.00 | 0.00 | 84 | 1013.4 |
| 20260508064508 | 7 | 132 | 0.0 | 3.2 | 0.00 | 0.00 | 0.00 | 85 | 1013.4 |
| 20260508063505 | 7 | 132 | 0.0 | 3.2 | 0.00 | 0.00 | 0.00 | 84 | 1013.3 |
| 20260508063015 | 7 | 240 | 0.0 | 3.2 | 0.00 | 0.00 | 0.00 | 83 | 1013.4 |
| 20260508062504 | 7 | 240 | 0.0 | 3.2 | 0.00 | 0.00 | 0.00 | 82 | 1013.4 |
| 20260508062006 | 8 | 126 | 1.6 | 3.2 | 0.00 | 0.00 | 0.00 | 82 | 1013.4 |
| 20260508061517 | 8 | 126 | 0.0 | 3.2 | 0.00 | 0.00 | 0.00 | 81 | 1013.5 |
| 20260508061007 | 8 | 126 | 0.0 | 4.8 | 0.00 | 0.00 | 0.00 | 81 | 1013.6 |
| 20260508060510 | 8 | 126 | 3.2 | 4.8 | 0.00 | 0.00 | 0.00 | 78 | 1013.7 |
| 20260508060021 | 8 | 60 | 1.6 | 4.8 | 0.00 | 0.00 | 0.00 | 77 | 1013.8 |
| 20260508055508 | 8 | 278 | 0.0 | 4.8 | 0.00 | 0.00 | 0.00 | 75 | 1014.2 |
| 20260508055003 | 8 | 349 | 0.0 | 4.8 | 0.00 | 0.00 | 0.00 | 77 | 1014.1 |
| 20260508054508 | 8 | 342 | 0.0 | 3.2 | 0.00 | 0.00 | 0.00 | 77 | 1014.4 |
| 20260508054005 | 8 | 342 | 0.0 | 3.2 | 0.00 | 0.00 | 0.00 | 78 | 1014.3 |
| 20260508053504 | 8 | 342 | 0.0 | 3.2 | 0.00 | 0.00 | 0.00 | 78 | 1014.2 |
| 20260508053010 | 8 | 342 | 1.6 | 3.2 | 0.00 | 0.00 | 0.00 | 79 | 1014.1 |
| 20260508052505 | 8 | 276 | 0.0 | 3.2 | 0.00 | 0.00 | 0.00 | 75 | 1014.1 |
| 20260508051511 | 8 | 159 | 0.0 | 3.2 | 0.00 | 0.00 | 0.00 | 73 | 1013.7 |
| 20260508050508 | 8 | 159 | 0.0 | 3.2 | 0.00 | 0.00 | 0.00 | 75 | 1013.6 |
| 20260508050032 | 8 | 159 | 0.0 | 0.0 | 0.00 | 0.00 | 0.00 | 75 | 1013.5 |
| 20260508045507 | 8 | 159 | 0.0 | 3.2 | 0.00 | 0.00 | 0.00 | 74 | 1013.5 |
| 20260508045007 | 8 | 159 | 0.0 | 3.2 | 0.00 | 0.00 | 0.00 | 74 | 1013.5 |
| 20260508044521 | 8 | 159 | 0.0 | 3.2 | 0.00 | 0.00 | 0.00 | 72 | 1013.6 |
| 20260508043504 | 8 | 159 | 0.0 | 3.2 | 0.00 | 0.00 | 0.00 | 72 | 1013.6 |
| 20260508043010 | 7 | 159 | 0.0 | 3.2 | 0.00 | 0.00 | 0.00 | 74 | 1013.7 |
| 20260508042504 | 7 | 159 | 0.0 | 3.2 | 0.00 | 0.00 | 0.00 | 78 | 1013.7 |
| 20260508042008 | 7 | 159 | 0.0 | 3.2 | 0.00 | 0.00 | 0.00 | 78 | 1013.6 |
| 20260508041512 | 7 | 159 | 0.0 | 3.2 | 0.00 | 0.00 | 0.00 | 79 | 1013.6 |
| 20260508041004 | 7 | 159 | 0.0 | 1.6 | 0.00 | 0.00 | 0.00 | 79 | 1013.7 |
| 20260508040507 | 7 | 159 | 0.0 | 3.2 | 0.00 | 0.00 | 0.00 | 79 | 1013.8 |
| 20260508040021 | 7 | 159 | 0.0 | 3.2 | 0.00 | 0.00 | 0.00 | 80 | 1013.8 |
| 20260508035506 | 7 | 159 | 0.0 | 3.2 | 0.00 | 0.00 | 0.00 | 81 | 1013.7 |
| 20260508035009 | 7 | 159 | 0.0 | 0.0 | 0.00 | 0.00 | 0.00 | 79 | 1013.9 |
| 20260508034522 | 7 | 159 | 0.0 | 0.0 | 0.00 | 0.00 | 0.00 | 79 | 1013.9 |
| 20260508034008 | 7 | 159 | 0.0 | 0.0 | 0.00 | 0.00 | 0.00 | 77 | 1014.0 |
| 20260508033510 | 7 | 159 | 0.0 | 0.0 | 0.00 | 0.00 | 0.00 | 77 | 1013.8 |
| 20260508033022 | 7 | 159 | 0.0 | 0.0 | 0.00 | 0.00 | 0.00 | 76 | 1013.9 |
| 20260508032505 | 7 | 159 | 0.0 | 0.0 | 0.00 | 0.00 | 0.00 | 76 | 1013.8 |
| 20260508032004 | 8 | 159 | 0.0 | 0.0 | 0.00 | 0.00 | 0.00 | 75 | 1013.8 |
| 20260508031512 | 8 | 159 | 0.0 | 0.0 | 0.00 | 0.00 | 0.00 | 74 | 1013.7 |
| 20260508031004 | 8 | 159 | 0.0 | 3.2 | 0.00 | 0.00 | 0.00 | 76 | 1013.8 |
| 20260508030507 | 8 | 159 | 0.0 | 3.2 | 0.00 | 0.00 | 0.00 | 76 | 1013.8 |
| 20260508030016 | 8 | 159 | 0.0 | 3.2 | 0.00 | 0.00 | 0.00 | 76 | 1013.8 |
| 20260508025006 | 8 | 159 | 0.0 | 3.2 | 0.00 | 0.00 | 0.00 | 76 | 1014.1 |
| 20260508024520 | 8 | 159 | 0.0 | 3.2 | 0.00 | 0.00 | 0.00 | 76 | 1014.1 |
| 20260508024008 | 8 | 159 | 0.0 | 3.2 | 0.00 | 0.00 | 0.00 | 75 | 1013.9 |
| 20260508023509 | 8 | 159 | 0.0 | 1.6 | 0.00 | 0.00 | 0.00 | 73 | 1013.8 |
| 20260508023021 | 8 | 159 | 0.0 | 3.2 | 0.00 | 0.00 | 0.00 | 71 | 1013.9 |
| 20260508022011 | 8 | 159 | 0.0 | 3.2 | 0.00 | 0.00 | 0.00 | 70 | 1013.8 |
| 20260508021528 | 8 | 159 | 0.0 | 0.0 | 0.00 | 0.00 | 0.00 | 68 | 1013.8 |
| 20260508021004 | 8 | 159 | 0.0 | 3.2 | 0.00 | 0.00 | 0.00 | 68 | 1013.8 |
| 20260508020505 | 9 | 159 | 0.0 | 3.2 | 0.00 | 0.00 | 0.00 | 66 | 1013.7 |
| 20260508020019 | 9 | 159 | 0.0 | 0.0 | 0.00 | 0.00 | 0.00 | 65 | 1013.7 |
| 20260508015505 | 10 | 159 | 0.0 | 3.2 | 0.00 | 0.00 | 0.00 | 65 | 1013.6 |
| 20260508015005 | 10 | 159 | 0.0 | 3.2 | 0.00 | 0.00 | 0.00 | 62 | 1013.6 |
| 20260508014520 | 10 | 159 | 0.0 | 3.2 | 0.00 | 0.00 | 0.00 | 59 | 1013.6 |
| 20260508014007 | 10 | 159 | 0.0 | 3.2 | 0.00 | 0.00 | 0.00 | 60 | 1013.5 |
| 20260508013505 | 10 | 159 | 1.6 | 3.2 | 0.00 | 0.00 | 0.00 | 55 | 1013.8 |
| 20260508013026 | 10 | 251 | 0.0 | 6.4 | 0.00 | 0.00 | 0.00 | 57 | 1013.7 |
| 20260508012512 | 10 | 228 | 0.0 | 8.0 | 0.00 | 0.00 | 0.00 | 56 | 1013.7 |
| 20260508012010 | 10 | 259 | 3.2 | 8.0 | 0.00 | 0.00 | 0.00 | 58 | 1013.6 |
| 20260508011526 | 9 | 279 | 3.2 | 6.4 | 0.00 | 0.00 | 0.00 | 66 | 1013.6 |
| 20260508011008 | 9 | 234 | 0.0 | 1.6 | 0.00 | 0.00 | 0.00 | 66 | 1013.6 |
| 20260508010509 | 9 | 234 | 0.0 | 0.0 | 0.00 | 0.00 | 0.00 | 66 | 1013.6 |
| 20260508010027 | 10 | 234 | 0.0 | 3.2 | 0.00 | 0.00 | 0.00 | 64 | 1013.5 |
| 20260508005507 | 10 | 234 | 0.0 | 3.2 | 0.00 | 0.00 | 0.00 | 61 | 1013.5 |
| 20260508005007 | 10 | 234 | 0.0 | 0.0 | 0.00 | 0.00 | 0.00 | 64 | 1013.6 |
| 20260508004516 | 10 | 234 | 0.0 | 0.0 | 0.00 | 0.00 | 0.00 | 59 | 1013.4 |
| 20260508004005 | 10 | 234 | 0.0 | 0.0 | 0.00 | 0.00 | 0.00 | 58 | 1013.4 |
| 20260508003505 | 11 | 234 | 0.0 | 0.0 | 0.00 | 0.00 | 0.00 | 56 | 1013.4 |
| 20260508003024 | 11 | 234 | 0.0 | 0.0 | 0.00 | 0.00 | 0.00 | 55 | 1013.4 |
| 20260508002505 | 11 | 234 | 0.0 | 0.0 | 0.00 | 0.00 | 0.00 | 53 | 1013.3 |
| 20260508002011 | 11 | 234 | 0.0 | 0.0 | 0.00 | 0.00 | 0.00 | 52 | 1013.3 |
| 20260508001538 | 11 | 234 | 0.0 | 0.0 | 0.00 | 0.00 | 0.00 | 52 | 1013.3 |
| 20260508001008 | 11 | 234 | 0.0 | 3.2 | 0.00 | 0.00 | 0.00 | 50 | 1013.3 |
| 20260508000511 | 11 | 234 | 0.0 | 3.2 | 0.00 | 0.00 | 0.00 | 49 | 1013.3 |
| 20260508000025 | 12 | 234 | 0.0 | 4.8 | 0.00 | 0.00 | 0.00 | 48 | 1013.2 |
| 20260507235509 | 12 | 211 | 0.0 | 6.4 | 0.00 | 0.00 | 0.00 | 47 | 1013.2 |
| 20260507235010 | 12 | 207 | 1.6 | 6.4 | 0.00 | 0.00 | 0.00 | 46 | 1013.1 |
| 20260507234511 | 12 | 248 | 0.0 | 6.4 | 0.00 | 0.00 | 0.00 | 46 | 1013.1 |
| 20260507234051 | 12 | 278 | 1.6 | 11.3 | 0.00 | 0.00 | 0.00 | 45 | 1013.1 |
| 20260507233507 | 12 | 265 | 1.6 | 11.3 | 0.00 | 0.00 | 0.00 | 43 | 1013.1 |
| 20260507233019 | 12 | 297 | 1.6 | 8.0 | 0.00 | 0.00 | 0.00 | 44 | 1013.1 |
| 20260507232509 | 13 | 296 | 1.6 | 9.7 | 0.00 | 0.00 | 0.00 | 43 | 1013.0 |
| 20260507232007 | 13 | 175 | 1.6 | 11.3 | 0.00 | 0.00 | 0.00 | 42 | 1013.1 |
| 20260507231529 | 13 | 266 | 4.8 | 11.3 | 0.00 | 0.00 | 0.00 | 42 | 1013.1 |
| 20260507231007 | 13 | 270 | 1.6 | 8.0 | 0.00 | 0.00 | 0.00 | 42 | 1013.1 |
| 20260507230509 | 13 | 266 | 1.6 | 4.8 | 0.00 | 0.00 | 0.00 | 42 | 1013.0 |
| 20260507230027 | 13 | 328 | 1.6 | 6.4 | 0.00 | 0.00 | 0.00 | 43 | 1013.1 |
| 20260507225510 | 13 | 263 | 1.6 | 12.9 | 0.00 | 0.00 | 0.00 | 43 | 1013.2 |
| 20260507225010 | 13 | 259 | 4.8 | 12.9 | 0.00 | 0.00 | 0.00 | 40 | 1013.2 |
| 20260507224537 | 14 | 250 | 4.8 | 11.3 | 0.00 | 0.00 | 0.00 | 40 | 1013.3 |
| 20260507224011 | 14 | 298 | 1.6 | 11.3 | 0.00 | 0.00 | 0.00 | 44 | 1013.2 |
| 20260507223515 | 14 | 231 | 3.2 | 12.9 | 0.00 | 0.00 | 0.00 | 43 | 1013.4 |
| 20260507223016 | 13 | 279 | 3.2 | 12.9 | 0.00 | 0.00 | 0.00 | 41 | 1013.4 |
| 20260507222507 | 14 | 313 | 3.2 | 11.3 | 0.00 | 0.00 | 0.00 | 43 | 1013.4 |
| 20260507222008 | 14 | 256 | 3.2 | 14.5 | 0.00 | 0.00 | 0.00 | 40 | 1013.4 |
| 20260507221522 | 14 | 269 | 3.2 | 16.1 | 0.00 | 0.00 | 0.00 | 42 | 1013.4 |
| 20260507221009 | 14 | 293 | 8.0 | 16.1 | 0.00 | 0.00 | 0.00 | 40 | 1013.4 |
| 20260507220506 | 14 | 286 | 3.2 | 9.7 | 0.00 | 0.00 | 0.00 | 41 | 1013.4 |
| 20260507220036 | 13 | 185 | 1.6 | 14.5 | 0.00 | 0.00 | 0.00 | 42 | 1013.4 |
| 20260507215010 | 12 | 243 | 4.8 | 14.5 | 0.00 | 0.00 | 0.00 | 42 | 1013.5 |
| 20260507214535 | 12 | 282 | 3.2 | 16.1 | 0.00 | 0.00 | 0.00 | 43 | 1013.3 |
| 20260507214008 | 12 | 294 | 6.4 | 16.1 | 0.00 | 0.00 | 0.00 | 41 | 1013.2 |
| 20260507213512 | 12 | 257 | 6.4 | 16.1 | 0.00 | 0.00 | 0.00 | 41 | 1013.2 |
| 20260507213027 | 13 | 261 | 6.4 | 16.1 | 0.00 | 0.00 | 0.00 | 40 | 1013.2 |
| 20260507212511 | 13 | 260 | 3.2 | 14.5 | 0.00 | 0.00 | 0.00 | 44 | 1013.3 |
| 20260507212007 | 13 | 313 | 4.8 | 12.9 | 0.00 | 0.00 | 0.00 | 42 | 1013.3 |
| 20260507211518 | 13 | 279 | 3.2 | 17.7 | 0.00 | 0.00 | 0.00 | 42 | 1013.3 |
| 20260507211008 | 13 | 269 | 4.8 | 17.7 | 0.00 | 0.00 | 0.00 | 42 | 1013.1 |
| 20260507210507 | 14 | 283 | 8.0 | 19.3 | 0.00 | 0.00 | 0.00 | 42 | 1013.1 |
| 20260507210020 | 14 | 5 | 4.8 | 19.3 | 0.00 | 0.00 | 0.00 | 42 | 1013.1 |
| 20260507205508 | 13 | 176 | 6.4 | 14.5 | 0.00 | 0.00 | 0.00 | 41 | 1013.1 |
| 20260507205009 | 13 | 314 | 8.0 | 14.5 | 0.00 | 0.00 | 0.00 | 43 | 1013.2 |
| 20260507204524 | 13 | 234 | 3.2 | 16.1 | 0.00 | 0.00 | 0.00 | 42 | 1013.2 |
| 20260507204013 | 14 | 15 | 8.0 | 16.1 | 0.00 | 0.00 | 0.00 | 40 | 1013.2 |
| 20260507203510 | 14 | 301 | 8.0 | 14.5 | 0.00 | 0.00 | 0.00 | 45 | 1013.1 |
| 20260507203032 | 14 | 352 | 4.8 | 16.1 | 0.00 | 0.00 | 0.00 | 48 | 1013.0 |
| 20260507202509 | 13 | 319 | 4.8 | 17.7 | 0.00 | 0.00 | 0.00 | 40 | 1013.0 |
| 20260507202013 | 13 | 288 | 8.0 | 17.7 | 0.00 | 0.00 | 0.00 | 42 | 1013.1 |
| 20260507201527 | 14 | 222 | 4.8 | 16.1 | 0.00 | 0.00 | 0.00 | 48 | 1013.1 |
| 20260507201008 | 13 | 59 | 4.8 | 19.3 | 0.00 | 0.00 | 0.00 | 44 | 1013.1 |
| 20260507200508 | 13 | 5 | 6.4 | 24.1 | 0.00 | 0.00 | 0.00 | 45 | 1013.2 |
| 20260507200020 | 13 | 248 | 11.3 | 24.1 | 0.00 | 0.00 | 0.00 | 42 | 1013.4 |
| 20260507195506 | 13 | 271 | 3.2 | 17.7 | 0.00 | 0.00 | 0.00 | 43 | 1013.3 |
| 20260507195011 | 13 | 351 | 3.2 | 19.3 | 0.00 | 0.00 | 0.00 | 46 | 1013.2 |
| 20260507194505 | 13 | 286 | 8.0 | 19.3 | 0.00 | 0.00 | 0.00 | 44 | 1013.3 |
| 20260507194005 | 13 | 252 | 8.0 | 12.9 | 0.00 | 0.00 | 0.00 | 46 | 1013.2 |
| 20260507193504 | 12 | 257 | 3.2 | 17.7 | 0.00 | 0.00 | 0.00 | 46 | 1013.3 |
| 20260507193013 | 13 | 268 | 4.8 | 20.9 | 0.00 | 0.00 | 0.00 | 47 | 1013.4 |
| 20260507192504 | 13 | 259 | 4.8 | 20.9 | 0.00 | 0.00 | 0.00 | 49 | 1013.4 |
| 20260507192004 | 12 | 332 | 3.2 | 19.3 | 0.00 | 0.00 | 0.00 | 50 | 1013.4 |
| 20260507191514 | 13 | 225 | 4.8 | 20.9 | 0.00 | 0.00 | 0.00 | 47 | 1013.4 |
| 20260507191009 | 13 | 306 | 6.4 | 24.1 | 0.00 | 0.00 | 0.00 | 49 | 1013.3 |
| 20260507190505 | 13 | 278 | 9.7 | 24.1 | 0.00 | 0.00 | 0.00 | 45 | 1013.5 |
| 20260507190020 | 13 | 313 | 4.8 | 14.5 | 0.00 | 0.00 | 0.00 | 45 | 1013.6 |
| 20260507185511 | 13 | 275 | 6.4 | 19.3 | 0.00 | 0.00 | 0.00 | 47 | 1013.6 |